Weather History for Brenham, TX

Change the Weather History Date:

Tuesday, July 2, 2013

  Actual Average (KCLL) Record (KCLL)
Temperature  
Mean Temperature 82 °F 84 °F  
Max Temperature 95 °F 94 °F 105 °F (2009)
Min Temperature 70 °F 74 °F 65 °F (1924)
Degree Days  
Heating Degree Days 0 0  
Month to date heating degree days 0  
Since 1 June heating degree days 0  
Since 1 July heating degree days 0  
Cooling Degree Days 18 19  
Month to date cooling degree days 38  
Year to date cooling degree days 1142  
Since 1 June cooling degree days 554  
Growing Degree Days 32 (Base 50)    
Moisture  
Dew Point 52 °F    
Average Humidity 37    
Maximum Humidity 63    
Minimum Humidity 17    
Precipitation  
Precipitation 0.00 in 0.09 in 2.85 in (1929)
Month to date precipitation 0.18  
Year to date precipitation 20.88  
Sea Level Pressure  
Sea Level Pressure 30.00 in    
Wind  
Wind Speed 3 mph (North)    
Max Wind Speed 13 mph    
Max Gust Speed 18 mph    
Visibility 10 miles    
Events      
T = Trace of Precipitation, MM = Missing Value Source: NWS Daily Summary

Daily Weather History Graph

Daily Weather History Graph

Search for Another Location

Airport:

Trip Planner

Search our weather history database for the weather conditions in past years. The results will help you decide how hot, cold, wet, or windy it might be!

Date:

Astronomy

Jul. 02, 2013 Rise Set
Actual Time 6:27 AM CDT 8:31 PM CDT
Civil Twilight 6:00 AM CDT 8:58 PM CDT
Nautical Twilight 5:27 AM CDT 9:31 PM CDT
Astronomical Twilight 4:51 AM CDT 10:07 PM CDT
Moon 2:19 AM CDT (7/2) 3:55 PM CDT (7/2)
Length of Visible Light 14h 57m
Length of Day
14h 03m
Waning Crescent, 26% of the Moon is Illuminated
Jul 2
Waning Crescent
Jul 8
New
Jul 15
First Quarter
Jul 22
Full
Jul 29
Last Quarter

Hourly Weather History & Observations

Time (CDT) Temp. Heat Index Dew Point Humidity Pressure Visibility Wind Dir Wind Speed Gust Speed Precip Events Conditions
12:15 AM 75.7 °F - 56.8 °F 52% 29.98 in 10.0 mi Calm Calm - N/A   Clear
12:35 AM 74.7 °F - 57.0 °F 54% 29.98 in 10.0 mi Calm Calm - N/A   Clear
12:55 AM 73.2 °F - 57.2 °F 57% 29.99 in 10.0 mi Calm Calm - N/A   Clear
1:15 AM 73.8 °F - 56.8 °F 55% 29.98 in 10.0 mi Calm Calm - N/A   Clear
1:35 AM 73.0 °F - 57.2 °F 57% 29.99 in 10.0 mi Calm Calm - N/A   Clear
1:55 AM 71.8 °F - 57.4 °F 60% 29.99 in 10.0 mi West 3.5 mph - N/A   Clear
2:15 AM 72.5 °F - 57.2 °F 59% 29.99 in 10.0 mi Calm Calm - N/A   Clear
2:35 AM 72.5 °F - 57.2 °F 59% 29.99 in 10.0 mi Calm Calm - N/A   Clear
2:55 AM 72.5 °F - 57.0 °F 58% 29.99 in 10.0 mi Calm Calm - N/A   Clear
3:15 AM 72.3 °F - 57.2 °F 59% 29.99 in 10.0 mi Calm Calm - N/A   Clear
3:35 AM 71.6 °F - 57.0 °F 60% - 10.0 mi Calm Calm - N/A   Clear
3:55 AM 72.7 °F - 56.5 °F 57% 29.99 in 10.0 mi Calm Calm - N/A   Clear
4:15 AM 72.0 °F - 56.7 °F 58% 30.00 in 10.0 mi Calm Calm - N/A   Clear
4:35 AM 71.1 °F - 57.2 °F 61% - 10.0 mi Calm Calm - N/A   Clear
4:55 AM 70.3 °F - 57.2 °F 63% 30.00 in 10.0 mi Calm Calm - N/A   Clear
5:15 AM 72.9 °F - 56.5 °F 56% 30.00 in 10.0 mi Calm Calm - N/A   Clear
5:35 AM 72.9 °F - 56.8 °F 57% 30.00 in 10.0 mi Calm Calm - N/A   Clear
5:55 AM 72.5 °F - 57.2 °F 59% 30.01 in 10.0 mi Calm Calm - N/A   Clear
6:15 AM 71.1 °F - 57.4 °F 62% 30.01 in 10.0 mi Calm Calm - N/A   Clear
6:35 AM 72.0 °F - 57.2 °F 60% 30.01 in 10.0 mi North 3.5 mph - N/A   Clear
6:55 AM 72.1 °F - 57.7 °F 60% 30.02 in 10.0 mi Calm Calm - N/A   Clear
7:15 AM 73.6 °F - 58.1 °F 58% 30.02 in 10.0 mi North 3.5 mph - N/A   Clear
7:35 AM 75.2 °F - 58.3 °F 56% 30.02 in 10.0 mi NNE 3.5 mph - N/A   Clear
7:55 AM 76.6 °F - 58.3 °F 53% 30.03 in 10.0 mi NNE 4.6 mph - N/A   Clear
8:15 AM 78.8 °F - 58.5 °F 50% 30.04 in 10.0 mi NNE 4.6 mph - N/A   Clear
8:35 AM 79.5 °F - 58.5 °F 48% 30.04 in 10.0 mi NNE 4.6 mph - N/A   Clear
8:55 AM 81.0 °F 81.2 °F 58.6 °F 46% 30.04 in 10.0 mi NNE 3.5 mph - N/A   Clear
9:15 AM 82.4 °F 82.3 °F 58.5 °F 44% 30.04 in 10.0 mi North 5.8 mph - N/A   Clear
9:35 AM 84.4 °F 84.0 °F 58.6 °F 42% 30.04 in 10.0 mi NNE 3.5 mph - N/A   Clear
9:55 AM 85.8 °F 84.8 °F 57.7 °F 38% 30.05 in 10.0 mi Calm Calm - N/A   Clear
10:15 AM 87.6 °F 86.5 °F 57.6 °F 36% 30.05 in 10.0 mi Calm Calm - N/A   Clear
10:35 AM 87.8 °F 86.7 °F 57.6 °F 36% 30.05 in 10.0 mi NNE 5.8 mph - N/A   Clear
10:55 AM 89.2 °F 87.7 °F 56.8 °F 33% 30.05 in 10.0 mi NW 6.9 mph - N/A   Clear
11:15 AM 88.9 °F 86.9 °F 54.5 °F 31% 30.05 in 10.0 mi North 6.9 mph - N/A   Clear
11:35 AM 90.0 °F 87.9 °F 54.3 °F 30% 30.05 in 10.0 mi NNW 6.9 mph - N/A   Scattered Clouds
11:55 AM 89.2 °F 86.9 °F 53.1 °F 29% 30.04 in 10.0 mi NNW 6.9 mph - N/A   Mostly Cloudy
12:15 PM 90.0 °F 87.7 °F 54.1 °F 29% 30.04 in 10.0 mi North 5.8 mph - N/A   Scattered Clouds
12:35 PM 89.2 °F - 51.3 °F 27% 30.04 in 10.0 mi North 6.9 mph - N/A   Scattered Clouds
12:55 PM 91.6 °F - 51.4 °F 25% 30.03 in 10.0 mi North 5.8 mph - N/A   Scattered Clouds
1:15 PM 92.8 °F - 48.7 °F 22% 30.02 in 10.0 mi North 6.9 mph - N/A   Clear
1:35 PM 92.5 °F - 50.9 °F 24% 30.02 in 10.0 mi NNE 6.9 mph 17.3 mph N/A   Scattered Clouds
1:55 PM 92.3 °F - 49.3 °F 23% 30.01 in 10.0 mi North 11.5 mph 16.1 mph N/A   Scattered Clouds
2:15 PM 92.7 °F - 48.0 °F 22% 30.00 in 10.0 mi North 11.5 mph - N/A   Scattered Clouds
2:35 PM 93.9 °F - 43.5 °F 18% 29.99 in 10.0 mi NNE 3.5 mph 16.1 mph N/A   Scattered Clouds
2:55 PM 94.1 °F - 44.6 °F 18% 29.99 in 10.0 mi NNW 12.7 mph 18.4 mph N/A   Scattered Clouds
3:15 PM 92.7 °F - 47.5 °F 21% 29.98 in 10.0 mi NNE 10.4 mph - N/A   Scattered Clouds
3:35 PM 95.2 °F - 45.1 °F 18% 29.97 in 10.0 mi North 9.2 mph - N/A   Scattered Clouds
3:55 PM 93.0 °F - 45.9 °F 20% 29.97 in 10.0 mi North 8.1 mph - N/A   Scattered Clouds
4:15 PM 95.2 °F - 45.3 °F 18% 29.97 in 10.0 mi NNE 8.1 mph - N/A   Clear
4:35 PM 94.1 °F - 44.4 °F 18% 29.97 in 10.0 mi NW 10.4 mph - N/A   Clear
4:55 PM 95.0 °F - 43.9 °F 17% 29.96 in 10.0 mi NW 11.5 mph - N/A   Scattered Clouds
5:15 PM 95.2 °F - 44.2 °F 17% 29.95 in 10.0 mi North 6.9 mph - N/A   Mostly Cloudy
5:35 PM 94.1 °F - 44.4 °F 18% 29.95 in 10.0 mi NW 8.1 mph - N/A   Scattered Clouds
5:55 PM 94.6 °F - 44.6 °F 18% 29.95 in 10.0 mi NE 6.9 mph - N/A   Clear
6:15 PM 92.5 °F - 43.3 °F 18% 29.95 in 10.0 mi North 9.2 mph - N/A   Clear
6:35 PM 93.0 °F - 41.9 °F 17% 29.95 in 10.0 mi NNW 4.6 mph - N/A   Clear
6:55 PM 93.7 °F - 43.0 °F 17% 29.95 in 10.0 mi NNE 5.8 mph - N/A   Clear
7:15 PM 93.2 °F - 42.6 °F 17% 29.95 in 10.0 mi North 4.6 mph - N/A   Clear
7:35 PM 92.5 °F - 43.3 °F 18% 29.95 in 10.0 mi North 5.8 mph - N/A   Clear
7:55 PM 91.6 °F - 43.9 °F 19% 29.96 in 10.0 mi North 3.5 mph - N/A   Clear
8:15 PM 89.6 °F - 43.7 °F 20% 29.97 in 10.0 mi North 3.5 mph - N/A   Clear
8:35 PM 88.2 °F - 43.3 °F 21% 29.97 in 10.0 mi North 4.6 mph - N/A   Clear
8:55 PM 86.2 °F - 44.4 °F 23% 29.98 in 10.0 mi North 3.5 mph - N/A   Clear
9:15 PM 85.3 °F - 44.6 °F 24% 29.98 in 10.0 mi Calm Calm - N/A   Clear
9:35 PM 83.5 °F - 45.3 °F 26% 29.98 in 10.0 mi North 4.6 mph - N/A   Clear
9:55 PM 84.0 °F - 45.1 °F 26% 29.99 in 10.0 mi North 3.5 mph - N/A   Clear
10:15 PM 82.4 °F - 46.0 °F 28% 29.99 in 10.0 mi North 3.5 mph - N/A   Clear
10:35 PM 81.9 °F - 45.9 °F 28% 29.99 in 10.0 mi Calm Calm - N/A   Clear
10:55 PM 78.6 °F - 48.4 °F 34% 30.00 in 10.0 mi North 3.5 mph - N/A   Clear
11:15 PM 77.2 °F - 49.3 °F 37% 30.00 in 10.0 mi Calm Calm - N/A   Clear
11:35 PM 78.1 °F - 48.9 °F 36% 30.00 in 10.0 mi Calm Calm - N/A   Clear
11:55 PM 75.7 °F - 50.5 °F 41% 30.02 in 10.0 mi East 4.6 mph - N/A   Mostly Cloudy